Other Surface Observations
Issued by NWS Tucson, AZ

Home | Current Version | Previous Version | Text Only | Print | Product List | Glossary On
Versions: 1 2 3 4 5 6 7 8 9 10 11 12 13 14 15 16 17 18 19 20 21 22 23 24 25 26 27 28 29 30 31 32 33 34 35 36 37 38 39 40 41 42 43 44 45 46 47 48 49 50
000
SXUS55 KTWC 310415
OSOTWC

WEATHER ROUNDUP FOR SOUTHEAST ARIZONA
NATIONAL WEATHER SERVICE TUCSON AZ
915 PM MST SAT JUL 30 2016

AZZ504>506-514-310515-
LOCATION       SKY/WX    TMP DP  RH WIND       PRES   REMARKS
TUCSON         CLOUDY    74  66  76 W13G21    29.95F
DAVIS-MONTHAN  DRIZZLE   75  66  73 W9G22     29.94S
CHILDRENS PARK N/A      N/A N/A  42 E10               PIMA CO DEQ
ALVERNON/22ND  N/A       84 N/A N/A E10               PIMA CO DEQ
CHERRY/GLENN   N/A      N/A N/A N/A N/A               PIMA CO DEQ
TANGERINE      N/A       92 N/A N/A NW2               PIMA CO DEQ
CONTL RANCH    N/A       93  60  33 NW5               PIMA CO DEQ
GRANT/1ST      N/A       88  60  39 E12               PIMA CO DEQ
CRAYCROFT/22ND N/A       80  66  62 N/A               PIMA CO DEQ
GOLFLINKS/KOLB N/A      N/A N/A N/A N/A               PIMA CO DEQ
AJO/12TH       N/A       86  62  44 E14               PIMA CO DEQ
SAGUARO EAST   N/A       27  12  52 N/A               PIMA CO DEQ
FAIRGROUNDS    N/A       70 N/A N/A N/A               PIMA CO DEQ
SAGUARO        N/A       72  67  83 NE3G28            *SABINO CYN
SAN CARLOS     N/A       85  61  45 E13G23            *SAN CARLOS
GREEN VALLEY   N/A       78  64  63 E8                PIMA CO DEQ
HORSE CAMP CYN N/A       82  59  45 SW12G18           *ARAVAIPA CYN
RINCON MTNS    NOT AVBL
$$

AZZ509>511-310515-
LOCATION       SKY/WX    TMP DP  RH WIND       PRES   REMARKS
SAFFORD        CLOUDY    80  57  45 W22G28    29.93R
STRAY HORSE    N/A       63  49  61 NW8               *
TRAIL CABIN    N/A       69  52  55 SW5G10            *N OF GRANVILLE
BLACK HILLS    NOT AVBL
DRY LAKE       N/A       58  53  82 N3                *NATANES MTNS
NOON CREEK     NOT AVBL
COLUMBINE      N/A       57  52  84 CALM              *PINALENO MTNS
GUTHRIE        N/A       73  51  46 N10G23            *SW OF GUTHRIE
$$

AZZ502-503-513-310515-
LOCATION       SKY/WX    TMP DP  RH WIND       PRES   REMARKS
NOGALES        MOCLDY    75  69  81 CALM      30.03R
SELLS          N/A       85  68  57 NE10G15           *
SASABE         N/A       83  64  53 SW6               *ALTAR VLY
HOPKINS        N/A       65  61  86 W8G13             *SANTA RITA MTNS
CARR CYN       N/A       75  57  54 SW3               *W OF HEREFORD
$$

AZZ507-508-512-310515-
LOCATION       SKY/WX    TMP DP  RH WIND       PRES   REMARKS
SIERRA VISTA   CLOUDY    74  62  64 NW14      30.09R
DOUGLAS        CLOUDY    75  62  64 N9        30.01R
EMPIRE MTNS    NOT AVBL
MULESHOE RANCH N/A       69  64  85 S3                *PRESERVE
HEADQUARTERS   NOT AVBL
$$

.............................NOTES.............................
THIS IS AN AUTOMATED COLLECTIVE WITH MINIMAL QUALITY CONTROL.
PIMA CO DEQ SITES HAVE NONSTANDARD WIND SENSOR HEIGHTS.
PIMA CO DEQ SITES DO NOT REPORT WIND GUSTS.
* INDICATES WIND SENSORS LOCATED AT 20 FEET INSTEAD OF 33 FEET.
..............................KEY..............................
SKY/WX - SKY CONDITION/WEATHER
TMP    - TEMPERATURE IN FAHRENHEIT
DP     - DEWPOINT IN FAHRENHEIT
RH     - RELATIVE HUMIDITY IN PERCENT
WIND   - DIRECTION AND SPEED IN MILES PER HOUR (MPH)
VRB    - VARIABLE WIND DIRECTION
PRES   - MEAN SEA LEVEL PRESSURE IN INCHES OF MERCURY
         F - FALLING PRESSURE   R - RISING PRESSURE
         S - STEADY PRESSURE
VSB    - VISIBILITY IN MILES
HX     - HEAT INDEX IN FAHRENHEIT
WCI    - WIND CHILL INDEX IN FAHRENHEIT
N/A    - NOT AVAILABLE
AFB    - AIR FORCE BASE
         DAVIS-MONTHAN IS DAVIS-MONTHAN AIR FORCE BASE
CYN    - CANYON
MTNS   - MOUNTAINS
NCA    - NATIONAL CONSERVATION AREA
NR     - NEAR
VLY    - VALLEY
CONTL  - CONTINENTAL
PIMA CO DEQ - PIMA COUNTY DEPT OF ENVIRONMENTAL QUALITY



USA.gov is the U.S. government's official web portal to all federal, state and local government web resources and services.